Weather History for Greensboro, NC

Change the Weather History Date:

Friday, March 7, 2014

  Actual Average Record
Temperature  
Mean Temperature 34 °F 47 °F  
Max Temperature 39 °F 58 °F 81 °F (1974)
Min Temperature 29 °F 37 °F 17 °F (1960)
Degree Days  
Heating Degree Days 31 18  
Month to date heating degree days 192 130  
Since 1 July heating degree days 3169 2985  
Cooling Degree Days 0 0  
Month to date cooling degree days 0 0  
Year to date cooling degree days 0 0  
Moisture  
Dew Point 29 °F    
Average Humidity 84    
Maximum Humidity 92    
Minimum Humidity 76    
Precipitation  
Precipitation 1.79 in 0.12 in 1.79 in (2014)
Month to date precipitation 2.54 0.82  
Year to date precipitation 8.76 6.84  
Snow  
Snow 3.00 in 0.00 in 0.40 in (1947)
Month to date snowfall 4.5 0.3  
Since 1 July snowfall 15.1 7.0  
Snow Depth 2.00 in    
Sea Level Pressure  
Sea Level Pressure 30.01 in    
Wind  
Wind Speed 10 mph (NNE)    
Max Wind Speed 23 mph    
Max Gust Speed 31 mph    
Visibility 6 miles    
Events Rain , Snow    
T = Trace of Precipitation, MM = Missing Value Source: NWS Daily Summary

Daily Weather History Graph

Daily Weather History Graph

Search for Another Location

Airport:

Trip Planner

Search our weather history database for the weather conditions in past years. The results will help you decide how hot, cold, wet, or windy it might be!

Date:

Astronomy

Mar. 07, 2014 Rise Set
Actual Time 6:41 AM EST 6:20 PM EST
Civil Twilight 6:16 AM EST 6:45 PM EST
Nautical Twilight 5:46 AM EST 7:15 PM EST
Astronomical Twilight 5:16 AM EST 7:45 PM EST
Moon 10:44 AM EST (3/7) 12:12 AM EST (3/7)
Length of Visible Light 12h 29m
Length of Day
11h 38m
Waxing Crescent, 42% of the Moon is Illuminated
Mar 7
Waxing Crescent
Mar 8
First Quarter
Mar 16
Full
Mar 23
Last Quarter
Mar 30
New

Hourly Weather History & Observations

Time (EST) Temp. Windchill Dew Point Humidity Pressure Visibility Wind Dir Wind Speed Gust Speed Precip Events Conditions
12:42 AM 30.2 °F 17.8 °F 26.6 °F 86% 30.09 in 6.0 mi NE 19.6 mph 27.6 mph 0.09 in Rain , Snow Light Freezing Rain
12:54 AM 30.0 °F 18.3 °F 27.0 °F 88% 30.10 in 3.0 mi NNE 17.3 mph 26.5 mph 0.11 in Snow Light Snow
1:00 AM 30.2 °F 18.5 °F 26.6 °F 86% 30.08 in 3.0 mi NNE 17.3 mph 25.3 mph 0.01 in Snow Light Snow
1:17 AM 30.2 °F 18.1 °F 26.6 °F 86% 30.07 in 2.5 mi NNE 18.4 mph 27.6 mph 0.07 in Snow Light Snow
1:27 AM 30.2 °F 18.5 °F 26.6 °F 86% 30.08 in 3.0 mi NNE 17.3 mph 24.2 mph 0.10 in Snow Light Snow
1:33 AM 30.2 °F 18.1 °F 26.6 °F 86% 30.07 in 3.0 mi NNE 18.4 mph 28.8 mph 0.11 in   Ice Pellets
1:44 AM 30.2 °F 18.9 °F 26.6 °F 86% 30.06 in 2.5 mi NNE 16.1 mph 21.9 mph 0.16 in   Heavy Ice Pellets
1:54 AM 28.9 °F 18.2 °F 26.1 °F 89% 30.08 in 2.0 mi NNE 13.8 mph 23.0 mph 0.21 in   Heavy Ice Pellets
1:58 AM 30.2 °F 20.2 °F 26.6 °F 86% 30.06 in 3.0 mi NNE 12.7 mph 24.2 mph 0.02 in   Ice Pellets
2:16 AM 30.2 °F 19.8 °F 26.6 °F 86% 30.06 in 3.0 mi NNE 13.8 mph 24.2 mph 0.08 in   Ice Pellets
2:38 AM 28.4 °F 17.5 °F 26.6 °F 93% 30.03 in 3.0 mi NNE 13.8 mph 23.0 mph 0.10 in Rain Light Freezing Rain
2:54 AM 28.9 °F 17.3 °F 26.1 °F 89% 30.04 in 3.0 mi NNE 16.1 mph 29.9 mph 0.13 in Rain Light Freezing Rain
3:54 AM 28.9 °F 16.1 °F 26.1 °F 89% 30.03 in 4.0 mi NNE 19.6 mph 31.1 mph 0.10 in Rain Light Freezing Rain
4:19 AM 30.2 °F 18.1 °F 26.6 °F 86% 30.00 in 4.0 mi NNE 18.4 mph 24.2 mph 0.10 in Snow Light Snow
4:32 AM 30.2 °F 19.8 °F 26.6 °F 86% 29.98 in 2.0 mi NNE 13.8 mph 27.6 mph 0.16 in Snow Light Snow
4:44 AM 30.2 °F 20.8 °F 26.6 °F 86% 29.99 in 3.0 mi NNE 11.5 mph 24.2 mph 0.23 in Snow Light Snow
4:54 AM 30.0 °F 21.7 °F 28.0 °F 92% 30.01 in 4.0 mi NNE 9.2 mph 21.9 mph 0.25 in Snow Light Snow
5:06 AM 30.2 °F 20.2 °F 28.4 °F 93% 29.99 in 6.0 mi North 12.7 mph 21.9 mph 0.02 in Rain Light Freezing Rain
5:54 AM 30.0 °F 21.1 °F 28.0 °F 92% 30.03 in 7.0 mi NNE 10.4 mph - 0.06 in Rain Light Freezing Rain
6:33 AM 30.2 °F 18.5 °F 26.6 °F 86% 30.00 in 8.0 mi NNE 17.3 mph 23.0 mph 0.02 in Rain Light Freezing Rain
6:54 AM 30.0 °F 19.5 °F 27.0 °F 88% 30.02 in 8.0 mi NNE 13.8 mph 24.2 mph 0.03 in Rain Light Freezing Rain
7:37 AM 30.2 °F 19.3 °F 28.4 °F 93% 30.00 in 4.0 mi NNE 15.0 mph 25.3 mph 0.12 in   Ice Pellets
7:54 AM 30.9 °F 19.8 °F 28.0 °F 89% 30.02 in 3.0 mi NNE 16.1 mph 27.6 mph 0.19 in   Ice Pellets
8:23 AM 30.2 °F 20.8 °F 28.4 °F 93% 30.01 in 3.0 mi NNE 11.5 mph 23.0 mph 0.10 in Snow Light Snow
8:46 AM 30.2 °F 21.9 °F 28.4 °F 93% 30.01 in 3.0 mi NNE 9.2 mph 19.6 mph 0.17 in   Ice Pellets
8:54 AM 30.9 °F 21.7 °F 28.9 °F 92% 30.03 in 4.0 mi NNE 11.5 mph 18.4 mph 0.19 in   Ice Pellets
9:22 AM 32.0 °F 22.5 °F 28.4 °F 87% 30.01 in 4.0 mi NNE 12.7 mph 20.7 mph 0.08 in   Light Ice Pellets
9:40 AM 32.0 °F 22.1 °F 28.4 °F 87% 30.01 in 2.5 mi NNE 13.8 mph 19.6 mph 0.14 in   Ice Pellets
9:54 AM 32.0 °F 22.5 °F 28.9 °F 88% 30.03 in 4.0 mi NNE 12.7 mph 27.6 mph 0.19 in   Light Ice Pellets
10:54 AM 32.0 °F 21.6 °F 30.0 °F 92% 30.03 in 4.0 mi NNE 15.0 mph 19.6 mph 0.15 in   Light Ice Pellets
11:39 AM 33.8 °F 24.3 °F 30.2 °F 87% 30.00 in 5.0 mi NNE 13.8 mph 21.9 mph 0.06 in Rain Light Freezing Rain
11:54 AM 33.1 °F 24.9 °F 30.9 °F 92% 30.01 in 4.0 mi North 10.4 mph 21.9 mph 0.08 in Rain Light Rain
12:20 PM 33.8 °F 25.8 °F 30.2 °F 87% 29.98 in 5.0 mi North 10.4 mph 19.6 mph 0.03 in Rain Light Rain
12:54 PM 34.0 °F 25.5 °F 30.9 °F 89% 29.99 in 4.0 mi North 11.5 mph 24.2 mph 0.06 in Rain Light Rain
1:54 PM 35.1 °F 26.9 °F 32.0 °F 89% 29.97 in 5.0 mi North 11.5 mph 17.3 mph 0.04 in Rain Light Rain
2:54 PM 36.0 °F 28.0 °F 33.1 °F 89% 29.95 in 10.0 mi North 11.5 mph 18.4 mph 0.01 in   Overcast
3:47 PM 37.4 °F 30.3 °F 33.8 °F 87% 29.93 in 10.0 mi North 10.4 mph 17.3 mph N/A   Overcast
3:54 PM 39.0 °F 32.8 °F 34.0 °F 82% 29.95 in 10.0 mi North 9.2 mph 17.3 mph N/A   Overcast
4:28 PM 39.2 °F 33.6 °F 33.8 °F 81% 29.93 in 10.0 mi North 8.1 mph 17.3 mph N/A   Overcast
4:54 PM 37.9 °F 31.5 °F 33.1 °F 83% 29.95 in 10.0 mi North 9.2 mph 17.3 mph N/A   Overcast
5:54 PM 39.0 °F 35.7 °F 32.0 °F 76% 29.93 in 10.0 mi NNE 4.6 mph - N/A   Mostly Cloudy
6:54 PM 37.9 °F 34.4 °F 32.0 °F 79% 29.94 in 10.0 mi North 4.6 mph - N/A   Mostly Cloudy
7:54 PM 37.0 °F 33.3 °F 32.0 °F 82% 29.95 in 10.0 mi NNW 4.6 mph - N/A   Scattered Clouds
8:54 PM 37.0 °F 34.5 °F 32.0 °F 82% 29.97 in 10.0 mi NNW 3.5 mph - N/A   Scattered Clouds
9:54 PM 35.1 °F 32.2 °F 30.9 °F 85% 29.97 in 10.0 mi WNW 3.5 mph - N/A   Partly Cloudy
10:54 PM 33.1 °F - 30.0 °F 89% 29.97 in 10.0 mi Calm Calm - N/A   Clear
11:54 PM 30.0 °F - 28.0 °F 92% 29.98 in 8.0 mi Calm Calm - N/A   Clear